Location: Campillo
(40.8621°N, 4.2488°W)
Time: 01:36:07
(UTC+00:00)

Cosmos 2154 Rocket - Pass Details

Date: 30 September 2021
Orbit: 965 x 997 km, 82.9° (Epoch: 21 October)

Event Time Altitude Azimuth Distance (km) Brightness Sun altitude
Rises 04:19:38 0° 9° (N) 3,698 7.4 -22.0°
Reaches altitude 10° 04:23:26 10° 31° (NNE) 2,738 7.0 -21.3°
Maximum altitude 04:26:56 15° 66° (ENE) 2,365 7.0 -20.6°
Drops below altitude 10° 04:30:24 10° 100° (E) 2,717 7.3 -20.0°
Sets 04:34:07 0° 123° (ESE) 3,654 7.7 -19.3°
